Regional Weather Roundup
Issued by NWS

Home | Current Version | Previous Version | Text Only | Print | Product List | Glossary On
Versions: 1 2 3 4 5 6 7 8 9 10 11 12 13 14 15 16 17 18 19 20 21 22 23 24 25 26 27 28 29 30 31 32 33 34 35 36 37 38 39 40 41 42 43 44 45 46 47 48 49 50
000
ASUS45 KBOI 281310
RWRID
WEATHER ROUNDUP FOR IDAHO
NATIONAL WEATHER SERVICE BOISE ID
600 AM MST SUN DEC 28 2014

NOTE: "FAIR" INDICATES FEW OR NO CLOUDS BELOW 12000 FEET
WITH NO SIGNIFICANT WEATHER AND/OR OBSTRUCTIONS TO VISIBILITY

IDZ012-014-281400-
SOUTHWEST IDAHO


CITY           SKY/WX    TMP DP  RH WIND       PRES   REMARKS
BOISE          MOCLDY    26  24  92 SE3       30.06R
CALDWELL       CLOUDY    30  25  80 CALM      30.09S
MOUNTAIN HOME  FRZ DRZL  31  30  96 W6        30.05R WCI  26
$$

IDZ016-017-281400-
SOUTHCENTRAL IDAHO


CITY           SKY/WX    TMP DP  RH WIND       PRES   REMARKS
BURLEY         LGT SNOW  29  26  89 SW8       29.97F FOG     WCI  21
JEROME         LGT SNOW  28  26  92 W13       30.00S FOG     WCI  17
TWIN FALLS     CLOUDY    33  25  72 W13       29.99S WCI  24
$$

IDZ019>023-281400-
SOUTHEAST IDAHO


CITY           SKY/WX    TMP DP  RH WIND       PRES   REMARKS
IDAHO FALLS    CLOUDY    24  19  81 SW8       29.97F WCI  15
POCATELLO      LGT SNOW  26  21  81 S18G26    29.97S WCI  13
REXBURG        LGT SNOW  21  20  96 S9        29.96S FOG     WCI  11
$$

IDZ006-010-011-018-031-032-281400-
CENTRAL IDAHO MOUNTAINS


CITY           SKY/WX    TMP DP  RH WIND       PRES   REMARKS
MCCALL         CLOUDY    19  17  92 NE5       29.93F WCI  12
HAILEY         MOCLDY    16  14  93 NW8       29.97S WCI   5
STANLEY          N/A     17  10  74 CALM      29.91R
SALMON         MOCLDY    18  12  79 CALM      29.96R
CHALLIS        PTCLDY     8   5  87 SW5       29.92F WCI   0
$$

IDZ002-004-006-007-026-281400-
NORTHERN IDAHO


CITY           SKY/WX    TMP DP  RH WIND       PRES   REMARKS
LEWISTON       CLOUDY    37  32  82 CALM      30.00R
LOWELL         NOT AVBL
COEUR D`ALENE  CLOUDY    32  28  86 W9        29.92R WCI  24
MULLAN PASS    LGT SNOW  23  18  81 CALM      29.77R
$$


USA.gov is the U.S. government's official web portal to all federal, state and local government web resources and services.